Wind_Speed
1 3 3 2 5 7 9 6 10 7 6 9 10 10 14 14 13 8 13 9 6 5 4 4 2 1 2 3 5 6 7 7 7 7 7 8 9 10 12 12 12 11 9 10 11 12 13 13 13
1 2 3 4 3 12 7 7 6 5 6 8 9 10 11 13 14 15 15 15 13 10 6 5 4 2 3 3 4 5 6 6 6 5 6 6 8 9 10 12 13 13 11 10 9 9 10 11 12
2 1 3 5 6 8 6 8 8 7 4 3 4 4 6 8 8 11 10 12 14 13 9 7 4 2 5 6 5 5 5 6 6 5 4 4 6 7 7 10 11 12 12 11 10 9 8 8 9
3 2 1 7 9 6 5 7 8 5 3 2 1 2 6 6 6 8 8 8 12 13 12 8 6 5 5 8 7 7 6 6 6 6 5 4 4 4 5 6 8 8 9 10 11 12 11 10 10
4 3 3 7 6 4 3 8 10 7 2 1 1 2 2 3 6 6 9 6 8 10 11 10 7 6 6 10 10 10 8 8 7 6 6 5 4 3 3 3 5 5 6 6 8 9 9 10 11
5 4 4 5 5 2 3 8 12 11 6 5 5 2 5 5 6 7 8 7 7 8 10 12 9 7 6 11 12 12 11 10 9 8 8 6 6 4 3 2 1 3 4 5 6 6 7 8 9
8 7 5 5 7 5 6 10 13 11 9 8 6 6 6 5 7 9 10 7 10 10 9 11 11 10 5 10 15 15 14 13 11 10 10 9 8 7 6 4 3 1 1 3 3 5 6 7 7
12 10 8 7 8 8 8 11 13 13 12 11 10 6 7 8 8 11 10 9 12 10 10 10 9 11 9 6 15 18 17 16 15 14 13 12 11 10 8 8 7 6 4 4 3 5 5 6 7
14 13 11 10 9 9 13 14 14 15 14 13 13 12 11 11 12 13 12 11 12 12 11 9 7 9 12 8 12 19 20 20 19 19 17 15 14 13 12 11 10 9 8 7 7 6 6 6 7
17 18 11 11 11 12 15 16 18 18 13 13 15 15 14 14 15 16 15 15 15 13 14 9 7 11 12 8 9 18 22 23 22 20 19 17 15 15 15 14 13 12 11 10 10 9 9 8 6
21 19 16 15 16 15 14 17 20 22 18 15 15 17 18 19 20 21 21 20 15 14 12 7 8 8 9 6 6 13 20 22 23 23 21 19 18 16 15 15 13 13 12 13 13 13 12 13 11
21 20 19 17 18 17 17 18 21 24 24 22 22 25 26 26 25 22 19 15 12 10 9 10 9 9 7 3 6 7 14 19 23 24 22 20 18 17 16 14 13 14 15 16 16 17 15 15 16
23 21 21 21 19 18 20 18 22 20 20 21 23 25 25 26 23 14 11 10 10 10 13 13 12 10 6 4 7 7 7 12 19 23 23 22 20 18 15 14 13 16 18 17 19 20 20 19 17
24 22 20 23 17 21 23 21 23 16 20 22 22 22 22 23 19 14 12 11 13 14 14 14 13 13 9 6 4 11 11 8 11 19 23 23 22 21 18 19 17 19 20 19 21 24 25 23 22
24 24 24 23 20 24 22 26 23 17 22 21 21 19 19 19 20 19 19 20 20 22 20 17 15 16 13 8 8 10 15 12 9 12 20 24 24 22 21 22 22 22 22 23 24 25 26 27 25
20 22 21 20 17 19 18 29 19 17 20 21 20 19 21 20 22 22 21 24 26 25 23 19 17 18 16 10 10 10 13 17 14 12 15 21 23 23 24 23 24 25 26 26 26 27 28 29 30
22 22 22 25 22 21 20 28 18 18 19 22 20 21 23 23 22 21 24 28 31 29 26 25 23 21 19 15 13 14 15 19 20 16 12 15 21 23 24 26 26 28 30 30 29 28 30 31 31
23 22 24 24 21 23 26 31 25 21 22 25 24 23 22 23 19 24 30 35 38 41 39 35 28 24 22 20 17 17 17 21 22 20 17 14 15 18 22 24 27 30 33 33 32 32 32 33 32
25 24 26 27 27 32 34 37 34 29 29 29 27 25 22 21 24 30 31 36 39 41 39 37 28 28 25 21 20 18 17 18 22 23 19 17 17 18 19 21 25 28 31 32 33 33 33 32 32
27 27 29 30 27 32 36 40 39 34 32 29 26 24 21 21 27 28 35 34 35 29 31 36 32 27 25 23 22 21 18 18 22 25 23 20 20 20 19 20 21 24 27 28 29 30 31 33 34
33 31 29 30 30 35 41 46 35 33 30 26 23 21 18 27 22 32 29 21 16 16 17 22 23 23 25 26 24 23 21 21 23 24 24 21 20 22 20 17 17 18 22 24 26 26 29 30 32
34 28 28 29 26 24 24 17 31 35 32 27 22 22 23 21 25 26 16 12 13 13 14 21 21 24 25 25 23 24 24 21 20 22 24 23 26 22 22 20 20 18 21 25 28 31 32 32 31
29 24 14 13 16 24 20 17 23 13 11 24 25 26 24 21 19 21 14 11 12 13 16 19 22 22 23 24 25 25 26 25 26 27 29 28 27 25 24 23 22 24 25 26 30 33 33 35 34
28 16 12 15 13 12 23 20 35 21 17 17 14 19 23 19 20 20 17 16 12 16 17 19 20 21 20 22 23 25 25 26 26 27 27 27 27 26 25 25 26 29 29 33 30 30 34 36 36
24 17 4 5 5 11 14 20 39 21 18 18 21 19 19 28 23 21 20 19 14 15 17 19 19 19 18 18 17 17 18 19 21 22 23 28 25 22 25 29 30 31 30 33 32 31 31 34 33
30 32 14 8 5 8 8 14 18 11 8 17 20 21 28 21 20 21 25 24 22 18 18 18 18 20 20 16 12 10 12 16 16 16 18 18 18 20 23 26 28 27 27 28 30 29 32 31 36
24 36 29 19 21 11 20 38 38 33 32 27 21 24 19 22 23 24 29 27 26 22 22 23 24 23 20 18 16 14 15 17 18 18 17 18 19 21 23 25 27 29 31 32 32 33 33 33 33
37 28 16 17 6 9 11 17 24 20 20 16 19 18 18 20 23 25 31 28 29 26 27 26 25 23 20 17 15 12 12 15 16 16 17 18 19 21 24 26 27 29 30 31 33 34 33 34 36
36 31 23 23 22 6 5 14 23 15 11 8 7 10 14 18 23 28 32 32 29 30 29 27 24 20 17 15 14 15 16 15 16 17 19 20 22 24 26 27 29 32 35 36 36 36 36 35 34
42 41 47 21 11 24 20 30 22 20 20 19 18 23 22 22 26 33 34 33 32 33 30 26 21 19 18 18 17 17 17 17 17 18 21 25 26 28 28 29 32 35 37 38 38 37 36 34 34
Wind_Direction
55 15 70 144 134 122 101 105 120 111 94 84 98 96 89 91 85 81 63 55 48 48 61 57 17 272 238 172 149 135 128 121 109 100 97 91 80 68 70 65 69 68 79 86 94 102 102 99 96
73 352 110 128 135 138 103 111 113 135 112 105 94 91 87 88 79 72 62 54 46 32 24 33 18 302 242 219 180 155 141 137 131 115 106 97 87 75 72 69 63 61 68 82 87 94 103 104 97
267 281 127 133 116 120 122 134 137 127 109 91 80 80 72 73 62 64 56 44 45 37 11 335 337 310 249 225 206 190 166 163 151 142 127 113 98 85 71 78 68 63 58 64 75 79 75 73 72
252 238 163 141 134 119 159 172 160 147 110 97 57 61 33 36 29 36 29 41 39 35 27 360 318 303 252 231 217 210 193 189 177 167 156 146 125 102 77 74 75 66 61 64 66 68 65 55 49
241 222 183 161 147 144 179 196 182 182 169 351 286 318 18 345 13 354 357 16 15 19 22 17 352 316 267 233 223 217 210 207 200 192 182 181 169 149 114 77 80 68 52 54 52 55 53 50 46
253 218 177 183 191 183 167 183 187 189 197 220 235 266 332 335 355 348 347 357 358 16 17 14 12 348 288 242 226 226 217 215 216 208 202 197 197 187 179 171 100 65 27 29 28 31 40 30 30
253 242 220 195 212 212 185 186 188 195 203 207 227 248 288 320 332 336 339 346 347 354 18 26 30 18 334 250 233 227 227 222 224 221 213 207 208 209 208 217 224 240 334 347 9 6 9 12 11
256 255 243 231 222 217 202 202 202 203 201 208 230 244 268 298 312 320 318 323 341 338 1 21 32 23 351 291 240 230 227 225 229 228 224 216 213 218 225 225 231 231 251 284 315 343 343 350 353
250 252 245 247 239 226 217 214 218 218 211 215 240 256 268 276 296 303 305 309 327 329 340 358 3 359 345 300 247 232 229 227 226 231 230 226 220 220 225 229 233 237 242 260 283 297 313 328 334
245 250 257 252 244 233 231 224 230 233 223 223 245 257 265 276 287 293 298 300 305 311 318 333 340 331 335 299 257 237 230 232 231 232 238 238 233 230 228 229 235 241 248 251 266 277 284 289 299
246 254 254 250 249 249 242 238 237 241 242 239 245 255 267 273 276 279 282 288 279 282 300 310 307 312 336 277 260 240 235 234 236 236 238 241 244 241 245 247 250 253 257 256 258 264 272 282 285
254 253 258 257 258 261 260 255 251 254 260 260 258 266 268 270 276 286 284 278 264 264 279 290 282 294 319 321 252 247 238 233 238 240 240 243 248 251 253 255 261 265 267 263 259 260 261 268 277
255 258 262 264 267 270 268 264 262 257 257 261 260 266 268 271 276 277 263 260 247 271 274 268 260 262 291 307 237 236 227 236 234 237 239 240 242 249 254 249 249 261 259 266 271 268 267 267 269
256 259 262 265 275 276 273 274 269 272 268 261 270 267 272 270 271 266 259 259 258 258 257 258 248 243 263 272 242 228 218 223 243 235 234 235 239 240 240 242 242 257 261 261 264 270 274 277 281
257 263 264 272 274 275 280 277 279 282 273 273 272 272 263 259 265 268 265 267 262 260 258 258 233 231 245 259 239 234 230 224 227 243 233 228 233 240 242 243 243 251 258 260 264 267 270 274 276
258 268 271 271 277 282 284 279 287 280 276 278 276 276 266 257 264 268 271 273 266 257 262 259 248 228 232 247 232 236 236 231 222 227 229 224 225 230 239 244 245 249 256 259 264 268 269 274 273
253 258 268 277 284 287 284 285 290 280 274 272 271 270 267 263 261 269 271 275 271 265 265 269 259 250 225 234 229 228 235 230 221 223 225 229 227 228 236 241 245 248 252 258 262 265 269 272 276
250 259 272 279 279 285 286 282 279 280 277 276 276 275 265 263 269 272 278 275 270 270 269 267 260 232 225 233 233 228 236 234 227 222 226 230 234 235 239 243 246 247 250 255 260 264 267 270 273
258 264 270 271 279 286 281 283 280 278 275 276 277 280 271 265 272 282 282 279 271 267 263 262 245 227 229 237 237 232 242 247 232 227 227 235 243 243 248 252 253 253 254 255 257 262 266 271 278
255 259 264 274 280 283 287 283 282 280 278 277 274 269 269 276 280 287 295 287 274 275 257 247 239 227 225 228 225 228 234 238 228 226 224 233 244 249 258 253 254 255 255 256 258 261 266 269 271
253 255 266 271 281 278 284 286 288 284 279 275 276 272 273 292 293 305 300 286 265 264 250 227 215 208 216 220 216 223 228 226 223 222 225 234 246 249 251 251 257 260 258 257 259 262 267 271 274
254 262 266 270 274 276 281 293 280 281 285 280 280 274 282 286 311 309 296 244 248 244 224 190 200 207 212 212 216 221 221 222 217 222 224 230 239 248 248 251 253 255 259 258 260 260 263 266 268
250 259 259 260 266 274 270 279 279 275 266 285 285 279 283 308 312 303 263 235 230 208 194 196 203 208 214 217 217 220 218 219 223 226 221 225 242 243 248 249 262 261 255 261 262 262 262 263 265
244 232 249 261 257 263 250 236 281 255 276 293 287 283 293 302 302 292 246 228 232 208 200 199 204 207 209 212 218 219 220 225 234 234 234 241 248 256 255 261 257 266 264 270 276 270 263 267 268
217 209 203 225 191 250 263 224 255 260 259 278 285 283 287 297 291 282 241 228 214 199 204 207 207 209 208 203 199 205 215 224 231 239 245 253 254 261 265 270 270 270 270 277 276 278 277 274 271
209 204 194 206 206 276 254 238 271 291 259 268 273 272 284 286 283 268 236 224 210 214 217 207 198 187 185 188 193 209 223 224 227 231 233 240 251 260 266 273 280 283 285 288 284 286 286 287 278
205 216 238 248 258 276 259 267 273 267 266 261 270 276 279 277 270 265 228 219 210 214 208 198 193 197 202 214 228 243 237 233 235 241 250 258 267 273 275 276 276 277 278 280 283 285 284 283 279
226 236 209 204 217 234 248 261 250 267 271 275 282 279 275 269 263 258 223 219 208 208 201 202 205 212 220 235 249 247 243 247 253 260 270 282 290 293 293 290 288 287 287 285 285 286 284 277 276
205 212 212 221 224 220 275 265 280 279 276 263 255 284 277 260 258 239 219 215 209 205 205 206 214 224 237 247 257 265 263 268 275 282 287 289 296 296 296 294 294 294 292 289 288 287 283 283 278
227 235 213 205 209 219 242 263 258 269 274 278 280 280 278 265 244 223 216 212 212 209 210 215 224 241 254 267 277 279 276 274 275 277 284 291 299 300 296 298 301 301 300 298 293 289 285 279 273
Height
3183 3184 3184 3184 3189 3186 3188 3191 3191 3191 3192 3192 3192 3192 3193 3191 3192 3196 3191 3190 3189 3189 3189 3189 3190 3190 3190 3191 3193 3194 3195 3196 3197 3198 3200 3200 3200 3200 3199 3200 3200 3201 3201 3200 3201 3201 3201 3202 3203
3183 3184 3185 3184 3186 3186 3189 3189 3190 3191 3191 3192 3193 3193 3193 3192 3192 3192 3192 3191 3189 3189 3189 3189 3189 3190 3190 3192 3193 3194 3195 3197 3198 3199 3200 3201 3201 3201 3201 3201 3202 3202 3203 3203 3204 3204 3204 3204 3204
3183 3184 3185 3185 3185 3186 3188 3189 3190 3191 3191 3192 3193 3194 3193 3193 3193 3192 3193 3192 3191 3189 3189 3189 3189 3189 3190 3192 3193 3194 3196 3197 3198 3199 3200 3202 3201 3202 3202 3203 3204 3204 3205 3205 3206 3206 3207 3207 3207
3183 3185 3185 3185 3185 3186 3187 3188 3189 3190 3191 3192 3193 3194 3194 3193 3193 3193 3192 3193 3192 3190 3190 3189 3188 3189 3189 3191 3192 3194 3196 3197 3198 3200 3201 3202 3202 3203 3203 3204 3205 3206 3206 3206 3207 3207 3208 3209 3209
3182 3183 3184 3184 3185 3186 3186 3187 3189 3189 3191 3191 3193 3193 3194 3193 3193 3193 3192 3192 3192 3191 3191 3189 3188 3188 3188 3190 3192 3193 3195 3197 3198 3199 3201 3202 3203 3204 3204 3205 3205 3206 3207 3207 3208 3208 3209 3209 3210
3180 3182 3183 3183 3184 3185 3185 3186 3187 3188 3189 3190 3192 3192 3193 3192 3193 3192 3192 3192 3192 3192 3191 3190 3188 3187 3187 3189 3191 3193 3195 3197 3198 3199 3200 3201 3202 3203 3204 3205 3206 3206 3207 3207 3208 3208 3209 3209 3210
3178 3180 3181 3182 3183 3184 3184 3185 3186 3187 3187 3189 3190 3190 3191 3191 3191 3191 3190 3190 3190 3190 3190 3188 3187 3187 3187 3187 3189 3191 3194 3195 3197 3197 3198 3199 3201 3202 3203 3205 3206 3206 3207 3207 3208 3208 3209 3209 3209
3175 3177 3179 3181 3182 3183 3183 3184 3184 3185 3185 3187 3188 3188 3189 3189 3189 3189 3189 3189 3189 3188 3188 3187 3186 3187 3186 3186 3187 3189 3191 3193 3195 3196 3197 3198 3199 3201 3203 3204 3205 3205 3206 3207 3207 3209 3209 3209 3209
3173 3175 3176 3178 3179 3180 3181 3182 3182 3182 3183 3184 3186 3186 3187 3186 3187 3187 3187 3187 3186 3186 3185 3185 3185 3185 3185 3184 3184 3185 3187 3190 3192 3194 3195 3196 3198 3200 3201 3202 3204 3205 3205 3206 3206 3207 3208 3208 3208
3170 3171 3174 3176 3177 3177 3178 3180 3180 3180 3181 3183 3184 3184 3184 3184 3184 3185 3185 3184 3184 3183 3183 3183 3182 3183 3182 3181 3181 3182 3184 3186 3189 3191 3194 3196 3197 3199 3199 3201 3202 3203 3204 3205 3205 3205 3207 3207 3207
3166 3168 3171 3172 3172 3174 3176 3177 3177 3176 3180 3181 3181 3181 3181 3181 3181 3181 3181 3181 3181 3181 3180 3180 3181 3181 3180 3178 3179 3179 3180 3183 3186 3188 3190 3194 3196 3197 3199 3200 3201 3202 3203 3203 3203 3204 3204 3205 3206
3164 3165 3166 3168 3169 3171 3172 3173 3173 3173 3177 3177 3176 3175 3176 3177 3177 3177 3177 3177 3177 3177 3177 3178 3178 3178 3177 3176 3176 3177 3178 3180 3183 3185 3188 3190 3193 3195 3197 3199 3200 3201 3201 3201 3201 3201 3201 3202 3203
3159 3161 3162 3163 3165 3166 3166 3168 3167 3169 3171 3170 3171 3170 3170 3171 3172 3173 3173 3173 3173 3173 3173 3174 3174 3174 3174 3173 3173 3173 3175 3176 3178 3181 3184 3187 3189 3192 3194 3196 3197 3197 3197 3198 3199 3199 3198 3198 3198
3155 3156 3158 3158 3162 3161 3161 3162 3162 3166 3165 3165 3164 3164 3165 3166 3167 3168 3169 3169 3169 3169 3169 3168 3169 3171 3171 3170 3170 3171 3172 3173 3175 3177 3180 3183 3186 3188 3189 3191 3192 3193 3194 3194 3194 3195 3195 3195 3196
3151 3152 3154 3155 3157 3156 3157 3155 3157 3160 3158 3160 3160 3159 3159 3161 3162 3163 3165 3165 3165 3164 3164 3164 3164 3166 3167 3167 3167 3167 3169 3170 3171 3173 3174 3177 3180 3184 3185 3186 3188 3189 3190 3190 3191 3191 3191 3192 3191
3148 3148 3149 3151 3152 3152 3153 3149 3153 3154 3154 3154 3155 3155 3155 3156 3157 3157 3159 3159 3158 3158 3159 3160 3159 3160 3162 3162 3163 3164 3165 3166 3167 3168 3170 3172 3175 3178 3180 3182 3183 3184 3184 3185 3185 3185 3186 3187 3186
3144 3143 3145 3146 3147 3147 3147 3144 3148 3148 3149 3148 3150 3150 3150 3152 3153 3153 3152 3151 3151 3151 3152 3153 3153 3154 3155 3157 3158 3158 3159 3160 3163 3166 3168 3169 3170 3172 3174 3176 3177 3178 3177 3178 3179 3179 3180 3180 3180
3138 3141 3141 3142 3142 3141 3140 3138 3141 3143 3143 3143 3144 3144 3145 3146 3148 3148 3144 3142 3141 3140 3141 3144 3146 3147 3149 3151 3152 3153 3154 3156 3158 3161 3163 3164 3166 3167 3168 3169 3170 3171 3171 3172 3172 3173 3173 3173 3173
3135 3137 3138 3137 3138 3134 3133 3132 3133 3137 3136 3136 3137 3138 3139 3140 3140 3139 3137 3132 3130 3129 3130 3131 3135 3139 3142 3144 3146 3147 3149 3152 3154 3156 3159 3160 3162 3163 3163 3164 3164 3164 3165 3166 3166 3166 3167 3167 3166
3130 3132 3133 3133 3134 3129 3126 3120 3123 3128 3128 3130 3130 3130 3132 3133 3131 3130 3126 3120 3117 3116 3116 3120 3125 3130 3135 3138 3140 3142 3144 3146 3148 3151 3153 3154 3156 3157 3157 3157 3157 3157 3158 3158 3160 3160 3160 3160 3160
3123 3125 3129 3131 3130 3125 3119 3108 3113 3116 3119 3123 3124 3125 3126 3125 3123 3121 3115 3110 3109 3109 3109 3112 3118 3124 3128 3131 3133 3136 3139 3141 3142 3145 3148 3149 3151 3150 3151 3151 3151 3152 3152 3152 3153 3154 3154 3154 3153
3116 3123 3124 3125 3127 3121 3118 3105 3105 3108 3111 3115 3119 3119 3119 3118 3116 3112 3109 3107 3107 3106 3106 3109 3114 3118 3121 3125 3128 3131 3133 3136 3139 3140 3142 3144 3143 3144 3145 3146 3145 3146 3145 3145 3146 3146 3145 3144 3145
3113 3118 3120 3121 3122 3117 3115 3115 3096 3101 3103 3108 3112 3112 3110 3110 3109 3108 3106 3105 3105 3104 3105 3107 3110 3114 3116 3119 3122 3125 3128 3130 3132 3133 3134 3135 3136 3137 3138 3139 3139 3139 3139 3139 3138 3137 3137 3136 3136
3109 3113 3117 3117 3117 3111 3107 3112 3079 3093 3097 3099 3102 3105 3104 3103 3104 3103 3103 3102 3102 3102 3103 3104 3106 3109 3112 3115 3117 3120 3122 3124 3127 3128 3129 3129 3130 3130 3130 3130 3130 3130 3131 3130 3130 3130 3129 3129 3128
3100 3107 3113 3114 3114 3097 3099 3098 3076 3088 3089 3093 3094 3097 3098 3098 3098 3098 3099 3099 3098 3099 3100 3101 3102 3105 3109 3112 3114 3116 3118 3120 3121 3123 3124 3125 3125 3124 3123 3123 3122 3122 3122 3122 3122 3121 3120 3121 3120
3091 3095 3096 3099 3100 3091 3092 3079 3073 3078 3082 3086 3088 3090 3089 3090 3092 3092 3093 3094 3094 3096 3097 3098 3100 3102 3105 3108 3110 3111 3112 3114 3116 3116 3117 3117 3118 3117 3117 3117 3116 3115 3115 3114 3113 3113 3112 3111 3110
3087 3086 3091 3094 3093 3095 3080 3071 3069 3073 3077 3078 3081 3081 3082 3084 3085 3087 3087 3088 3090 3091 3093 3095 3096 3099 3101 3103 3105 3106 3107 3108 3109 3109 3110 3109 3110 3111 3110 3110 3109 3108 3106 3105 3103 3102 3101 3100 3098
3076 3081 3087 3088 3087 3085 3067 3066 3062 3065 3068 3072 3073 3074 3076 3078 3079 3080 3081 3082 3084 3086 3089 3091 3093 3095 3097 3099 3101 3101 3102 3103 3103 3103 3104 3103 3103 3102 3101 3101 3100 3099 3097 3095 3093 3092 3090 3089 3089
3066 3069 3072 3073 3073 3068 3067 3056 3057 3059 3061 3065 3067 3069 3070 3072 3073 3074 3075 3077 3079 3081 3084 3086 3088 3091 3093 3094 3095 3096 3095 3095 3096 3096 3095 3095 3094 3093 3093 3091 3091 3089 3086 3085 3083 3081 3081 3080 3079
3054 3053 3054 3058 3063 3064 3063 3046 3050 3053 3057 3060 3062 3063 3064 3066 3066 3066 3069 3072 3075 3076 3078 3081 3083 3085 3086 3087 3087 3088 3088 3088 3088 3088 3088 3087 3085 3084 3084 3082 3080 3081 3080 3077 3074 3073 3071 3068 3067